This is the latest recevied weather packets stored in our database for station/object JM1YTT-13. If no packets are shown the sender has not sent any weather packets the latest 10 day(s).
| Time | Temp. | Humidity | Pressure | Rain* | Wind** | Luminosity | Snow |
|---|---|---|---|---|---|---|---|
| 1777597990 | 10.56° C | 95% | 1012.9 hPa | 0 mm | - | - | - |
| 1777596190 | 10.56° C | 95% | 1012.9 hPa | 0 mm | - | - | - |
| 1777594390 | 10.56° C | 95% | 1012.9 hPa | 0 mm | - | - | - |
| 1777592590 | 10.56° C | 95% | 1012.9 hPa | 0 mm | - | - | - |
| 1777590790 | 10.56° C | 95% | 1012.9 hPa | 0 mm | - | - | - |
| 1777588990 | 10.56° C | 95% | 1012.9 hPa | 0 mm | - | - | - |
| 1777587190 | 10.56° C | 95% | 1012.9 hPa | 0 mm | - | - | - |
| 1777585390 | 10.56° C | 95% | 1012.9 hPa | 0 mm | - | - | - |
| 1777583590 | 10.56° C | 95% | 1012.9 hPa | 0 mm | - | - | - |
| 1777581790 | 10.56° C | 95% | 1012.9 hPa | 0 mm | - | - | - |
| 1777579990 | 10.56° C | 95% | 1012.9 hPa | 0 mm | - | - | - |
| 1777578190 | 10.56° C | 95% | 1012.9 hPa | 0 mm | - | - | - |
| 1777576390 | 10.56° C | 95% | 1012.9 hPa | 0 mm | - | - | - |
| 1777574590 | 11.11° C | 95% | 1013 hPa | 0 mm | - | - | - |
| 1777572790 | 11.11° C | 95% | 1012.8 hPa | 0 mm | - | - | - |
| 1777570990 | 10.56° C | 94% | 1013.1 hPa | 0 mm | - | - | - |
| 1777569190 | 10.56° C | 94% | 1014 hPa | 0 mm | - | - | - |
| 1777567390 | 10.56° C | 94% | 1014.4 hPa | 0 mm | - | - | - |
| 1777565590 | 11.11° C | 93% | 1015.1 hPa | 0 mm | - | - | - |
| 1777563790 | 11.11° C | 92% | 1015.8 hPa | 0 mm | - | - | - |
| 1777561990 | 11.67° C | 90% | 1016.2 hPa | 0 mm | - | - | - |
| 1777560190 | 12.22° C | 87% | 1016.7 hPa | 0 mm | - | - | - |
| 1777558390 | 12.78° C | 83% | 1017.2 hPa | 0 mm | - | - | - |
| 1777556590 | 13.33° C | 82% | 1017.7 hPa | 0 mm | - | - | - |
| 1777554790 | 13.33° C | 81% | 1017.8 hPa | 0 mm | - | - | - |
* Rain latest hour (hover to see other rain measurements)
** Current wind speed in m/s (hover to see current wind gust speed)